Location: Newark
(45.6578°N, 6.1797°E)
Time: 16:01:08
(UTC+00:00)

OTV 5 (USA 277) - Visible Passes

Search period start: 23 October 2019 00:00
Search period end: 02 November 2019 00:00
Orbit: 310 x 324 km, 54.5° (Epoch: 17 October)

Date Brightness Start Highest point End Pass type
(mag) Time Alt. Az. Time Alt. Az. Time Alt. Az.
27 Oct ? 18:23:59 10° SSW 18:24:02 10° SSW 18:24:02 10° SSW visible
28 Oct ? 18:38:05 10° SW 18:38:41 15° SW 18:38:41 15° SW visible
29 Oct ? 17:19:22 10° S 17:21:17 17° SE 17:22:16 15° ESE visible
29 Oct ? 18:52:44 10° WSW 18:53:10 13° WSW 18:53:10 13° WSW visible
30 Oct ? 17:33:03 10° SSW 17:35:40 43° SE 17:36:39 29° E visible
31 Oct ? 17:47:27 10° WSW 17:50:10 70° NW 17:50:56 42° NE visible
01 Nov ? 18:02:19 10° W 18:04:50 32° NNW 18:05:08 31° N visible
